Savannah Hunter, GA

4:06 PM EST on December 16, 2017 (GMT -0500)
Hunter Army Air Field

Weather History for KSVN - November, 2013

Change the Weather History Date:

Tuesday, November 19, 2013

  Actual Average Record
Temperature  
Mean Temperature 56 °F -  
Max Temperature 63 °F 68 °F 77 °F (1999)
Min Temperature 50 °F 47 °F 25 °F (2014)
Degree Days  
Heating Degree Days 8    
Growing Degree Days 6 (Base 50)    
Moisture  
Dew Point 38 °F    
Average Humidity 50    
Maximum Humidity 68    
Minimum Humidity 33    
Precipitation  
Precipitation 0.00 in - - ()
Sea Level Pressure  
Sea Level Pressure 30.06 in    
Wind  
Wind Speed 5 mph (NE)    
Max Wind Speed 14 mph    
Max Gust Speed 22 mph    
Visibility 10 miles    
Events      
Averages and records for this station are not official NWS values.
T = Trace of Precipitation, MM = Missing Value Source: NWS Daily Summary

Daily Weather History Graph

Daily Weather History Graph

Search for Another Location

Airport or City:

Trip Planner

Search our weather history database for the weather conditions in past years. The results will help you decide how hot, cold, wet, or windy it might be!

Date:

Astronomy

Nov. 19, 2013 Rise Set
Actual Time 6:57 AM EST 5:22 PM EST
Civil Twilight 6:30 AM EST 5:48 PM EST
Nautical Twilight 6:01 AM EST 6:18 PM EST
Astronomical Twilight 5:32 AM EST 6:47 PM EST
Moon 7:13 PM EST (11/19) 8:34 AM EST (11/19)
Length of Visible Light 11h 17m
Length of Day
10h 25m
Waning Gibbous, 96% of the Moon is Illuminated
Nov 19
Waning Gibbous
Nov 25
Last Quarter
Dec 2
New
Dec 9
First Quarter
Dec 17
Full

Hourly Weather History & Observations

Time (EST) Temp. Dew Point Humidity Pressure Visibility Wind Dir Wind Speed Gust Speed Precip Events Conditions
12:58 AM 60.6 °F 40.8 °F 48% 29.94 in 10.0 mi Variable 2.3 mph - N/A   Clear
1:58 AM 59.0 °F 38.5 °F 47% 29.95 in 10.0 mi Variable 2.3 mph - N/A   Clear
2:58 AM 57.2 °F 38.1 °F 49% 29.95 in 10.0 mi Calm Calm - N/A   Clear
3:58 AM 54.5 °F 38.1 °F 54% 29.96 in 10.0 mi NNW 3.5 mph - N/A   Clear
4:58 AM 55.2 °F 36.3 °F 49% 29.98 in 10.0 mi North 5.8 mph - N/A   Clear
5:58 AM 52.5 °F 36.9 °F 55% 30.00 in 10.0 mi Variable 5.8 mph - N/A   Clear
6:58 AM 50.5 °F 37.0 °F 60% 30.03 in 10.0 mi NNE 4.6 mph - N/A   Clear
7:58 AM 52.9 °F 37.2 °F 55% 30.05 in 10.0 mi NNE 9.2 mph - N/A   Clear
8:58 AM 57.0 °F 35.1 °F 44% 30.06 in 10.0 mi NE 11.5 mph 21.9 mph N/A   Clear
9:58 AM 59.4 °F 33.1 °F 37% 30.09 in 10.0 mi NE 13.8 mph 19.6 mph N/A   Clear
10:58 AM 60.8 °F 33.8 °F 36% 30.10 in 10.0 mi NE 12.7 mph 19.6 mph N/A   Clear
11:58 AM 62.4 °F 33.3 °F 34% 30.08 in 10.0 mi NE 10.4 mph 21.9 mph N/A   Clear
12:58 PM 62.8 °F 34.2 °F 34% 30.08 in 10.0 mi NNE 8.1 mph - N/A   Clear
1:58 PM 63.3 °F 35.4 °F 35% 30.06 in 10.0 mi ENE 6.9 mph - N/A   Clear
2:58 PM 63.5 °F 34.2 °F 33% 30.06 in 10.0 mi ENE 6.9 mph - N/A   Clear
3:58 PM 62.6 °F 35.4 °F 36% 30.06 in 10.0 mi Variable 4.6 mph - N/A   Clear
4:58 PM 59.4 °F 41.5 °F 52% 30.06 in 10.0 mi East 9.2 mph - N/A   Clear
5:58 PM 55.0 °F 41.4 °F 60% 30.09 in 10.0 mi ENE 5.8 mph - N/A   Clear
6:58 PM 54.9 °F 41.5 °F 61% 30.11 in 10.0 mi ENE 5.8 mph - N/A   Clear
7:58 PM 54.0 °F 42.6 °F 65% 30.13 in 10.0 mi ENE 4.6 mph - N/A   Clear
8:58 PM 53.8 °F 41.7 °F 64% 30.13 in 10.0 mi ENE 6.9 mph - N/A   Clear
9:58 PM 52.7 °F 42.4 °F 68% 30.14 in 10.0 mi NE 5.8 mph - N/A   Clear
10:58 PM 52.0 °F 39.6 °F 63% 30.15 in 10.0 mi NNE 4.6 mph - N/A   Clear
11:58 PM 51.1 °F 40.1 °F 66% 30.15 in 10.0 mi NNE 4.6 mph - N/A   Clear